User: anonymous   Login
Location: 02324
(41.9834°N, 70.9022°W)
Time: 17:37:46
(UTC-04:00)
Language:

Resurs 01 Rocket - Orbit

View from above orbital plane
View from above orbital plane
View from above satellite
View from above satellite

Ground track
Ground track

The orbit data is extracted from the following two-line orbital elements,

1 23343U 94074B   17234.56011965  .00000002  00000-0  77970-5 0  9996
2 23343  98.1480 272.2872 0006149 210.6039 305.2864 14.76705666226622
Epoch (UTC): 22 August 2017 13:26:34
Eccentricity: 0.0006149
inclination: 98.1480°
perigee height: 635 km
apogee height: 644 km
right ascension of ascending node: 272.2872°
argument of perigee: 210.6039°
revolutions per day: 14.76705666
mean anomaly at epoch: 305.2864°
orbit number at epoch: 22662

The dashed part of the orbit path shows where the satellite is in the earth's shadow,  

DLR